Location: Schommer Observatory
(40.5200°N, 74.4500°W)
Time: 08:02:22
(UTC-05:00)

Vanguard 1 - All Passes

Search period start: 14 December 2017 00:00
Search period end: 24 December 2017 00:00
Orbit: 650 x 3833 km, 34.2° (Epoch: 13 December)

Date Brightness Start Highest point End Pass type
(mag) Time Alt. Az. Time Alt. Az. Time Alt. Az.
14 Dec - 05:59:31 10° S 06:16:57 28° SE 06:31:45 10° E visible
14 Dec - 08:19:44 10° SW 08:41:24 53° SSE 08:55:47 10° E daylight
14 Dec - 10:45:53 10° WSW 11:05:38 68° S 11:16:30 10° E daylight
14 Dec - 13:13:42 10° W 13:27:52 53° SSW 13:35:34 10° SE daylight
14 Dec - 15:41:36 10° W 15:47:08 17° SW 15:51:17 10° S daylight
15 Dec - 06:18:37 10° SSW 06:37:59 35° SE 06:53:56 10° E visible
15 Dec - 08:40:36 10° SW 09:02:43 59° SSE 09:16:56 10° E daylight
15 Dec - 11:07:31 10° W 11:26:53 68° S 11:37:24 10° ESE daylight
15 Dec - 13:35:25 10° W 13:48:39 45° SSW 13:56:03 10° SE daylight
15 Dec - 16:05:49 10° WSW 16:07:21 11° SW 16:08:45 10° SW daylight
16 Dec - 04:24:12 10° SSE 04:35:20 16° SE 04:46:11 10° ESE visible
16 Dec - 06:38:18 10° SSW 06:59:04 42° SSE 07:15:42 10° E visible
16 Dec - 09:01:43 10° WSW 09:24:03 64° SSE 09:38:02 10° E daylight
16 Dec - 11:29:14 10° W 11:48:03 66° S 11:58:15 10° ESE daylight
16 Dec - 13:57:13 10° W 14:09:16 37° SW 14:16:20 10° SSE daylight
17 Dec - 04:41:02 10° S 04:56:06 22° SE 05:10:33 10° E visible
17 Dec - 06:58:27 10° SW 07:20:14 49° SSE 07:37:11 10° E daylight
17 Dec - 09:23:05 10° WSW 09:45:25 68° S 09:59:05 10° E daylight
17 Dec - 11:50:58 10° W 12:09:10 62° SSW 12:19:00 10° ESE daylight
17 Dec - 14:19:12 10° W 14:29:43 29° SW 14:36:19 10° SSE daylight
18 Dec - 04:59:24 10° S 05:16:53 29° SE 05:33:30 10° E visible
18 Dec - 07:18:59 10° SW 07:41:29 56° SSE 07:58:31 10° E daylight
18 Dec - 09:44:35 10° WSW 10:06:47 70° S 10:20:05 10° E daylight
18 Dec - 12:12:44 10° W 12:30:09 56° SSW 12:39:40 10° SE daylight
18 Dec - 14:41:33 10° W 14:50:02 21° SW 14:55:51 10° S daylight
19 Dec - 05:18:36 10° SSW 05:37:45 36° SE 05:55:44 10° E visible
19 Dec - 07:39:49 10° SW 08:02:48 62° SSE 08:19:46 10° E daylight
19 Dec - 10:06:13 10° W 10:28:08 71° S 10:41:02 10° ESE daylight
19 Dec - 12:34:32 10° W 12:50:59 49° SSW 13:00:11 10° SE daylight
19 Dec - 15:04:44 10° W 15:10:12 14° SW 15:14:29 10° SSW daylight
20 Dec - 03:24:42 10° SSE 03:35:32 16° SE 03:46:52 10° E visible
20 Dec - 05:38:20 10° SSW 05:58:43 43° SE 06:17:33 10° E visible
20 Dec - 08:00:54 10° WSW 08:24:13 67° SSE 08:40:56 10° E daylight
20 Dec - 10:27:55 10° W 10:49:26 69° S 11:01:56 10° ESE daylight
20 Dec - 12:56:24 10° W 13:11:39 41° SW 13:20:28 10° SSE daylight
21 Dec - 03:41:44 10° S 03:56:03 23° SE 04:11:17 10° E visible
21 Dec - 05:58:29 10° SW 06:19:48 51° SSE 06:39:08 10° E visible
21 Dec - 08:22:12 10° WSW 08:45:40 70° S 09:02:04 10° E daylight
21 Dec - 10:49:40 10° W 11:10:38 65° SSW 11:22:45 10° ESE daylight
21 Dec - 13:18:26 10° W 13:32:08 33° SW 13:40:31 10° SSE daylight
22 Dec - 04:00:13 10° S 04:16:38 30° SE 04:34:18 10° E visible
22 Dec - 06:18:59 10° SW 06:40:59 57° SSE 07:00:34 10° E visible
22 Dec - 08:43:39 10° WSW 09:07:09 72° S 09:23:09 10° E daylight
22 Dec - 11:11:26 10° W 11:31:43 59° SSW 11:43:26 10° SE daylight
22 Dec - 13:40:47 10° W 13:52:27 25° SW 14:00:07 10° S daylight
23 Dec - 04:19:27 10° SSW 04:37:20 37° SE 04:56:38 10° E visible
23 Dec - 06:39:46 10° SW 07:02:19 63° SSE 07:21:54 10° E visible
23 Dec - 09:05:12 10° W 09:28:37 72° S 09:44:11 10° ESE daylight
23 Dec - 11:33:15 10° W 11:52:38 52° SSW 12:03:58 10° SE daylight
23 Dec - 14:03:44 10° W 14:12:37 18° SW 14:19:05 10° SSW daylight
